FW7254 Weather Reports


Display with metric or nautical units.
time (UTC)temp
F
wind
direction
speed
MPH
gust
MPH
rain 1hr
in
rain 24hr
in
rain mn
in
humidity
%
barometer
mb
20260504224824 61 5 3.0 0.0 0.00 0.00 0.00 37 1018.5
20260504223327 61 355 4.0 0.0 0.00 0.00 0.00 38 1018.2
20260504221816 60 10 2.0 0.0 0.00 0.00 0.00 39 1018.0
20260504220321 59 34 1.0 0.0 0.00 0.00 0.00 42 1018.0
20260504214830 58 36 2.0 0.0 0.00 0.00 0.00 43 1017.9
20260504213332 58 5 1.0 0.0 0.00 0.00 0.00 43 1017.7
20260504211839 58 355 1.0 0.0 0.00 0.00 0.00 43 1017.4
20260504210317 57 360 1.0 0.0 0.00 0.00 0.00 44 1017.1
20260504204825 57 5 1.0 0.0 0.00 0.00 0.00 44 1016.7
20260504203312 57 360 1.0 0.0 0.00 0.00 0.00 43 1016.2
20260504201813 57 5 3.0 0.0 0.00 0.00 0.00 44 1015.9
20260504200324 57 360 2.0 0.0 0.00 0.00 0.00 43 1015.5
20260504194831 57 355 3.0 0.0 0.00 0.00 0.00 43 1015.1
20260504193311 58 5 3.0 0.0 0.00 0.00 0.00 43 1014.5
20260504191818 58 360 2.0 0.0 0.00 0.00 0.00 43 1013.9
20260504190323 57 5 3.0 0.0 0.00 0.00 0.00 46 1013.9
20260504184836 57 15 3.0 0.0 0.00 0.00 0.00 48 1013.6
20260504183336 56 360 4.0 0.0 0.00 0.00 0.00 52 1013.3
20260504181823 56 355 2.0 0.0 0.00 0.00 0.00 53 1013.1
20260504180349 57 5 1.0 0.0 0.00 0.00 0.00 52 1012.8
20260504174812 57 5 4.0 0.0 0.00 0.00 0.00 51 1012.3
20260504173318 56 342 5.0 0.0 0.00 0.00 0.00 51 1011.8
20260504171826 56 241 3.0 0.0 0.00 0.00 0.00 52 1011.4
20260504170332 56 355 3.0 0.0 0.00 0.00 0.00 52 1011.3
20260504160334 58 360 3.0 0.0 0.00 0.00 0.00 51 1009.6
20260504150330 60 350 3.0 0.0 0.00 0.00 0.41 53 1008.4
20260504140331 61 360 3.0 0.0 0.00 0.00 0.41 55 1007.1
20260504130325 63 13 1.0 0.0 0.00 0.00 0.41 53 1005.7
20260504110312 69 57 1.0 0.0 0.00 0.00 0.41 47 1001.6
20260504100320 71 103 0.0 0.0 0.00 0.00 0.41 54 999.8
20260504081819 76 130 2.0 0.0 0.00 0.00 0.41 41 996.3
20260504080326 76 284 4.0 0.0 0.00 0.00 0.41 38 995.8
20260504070327 76 132 2.0 0.0 0.00 0.00 0.41 47 994.9
20260504050330 77 226 3.0 0.0 0.00 0.00 0.41 60 994.2
20260504044818 77 121 4.0 0.0 0.00 0.00 0.41 59 994.1
20260504043317 77 180 3.0 0.0 0.00 0.00 0.41 58 994.1
20260504041852 77 263 5.0 0.0 0.00 0.00 0.41 58 994.2
20260504040356 77 252 6.0 0.0 0.00 0.00 0.41 56 994.1
20260504034815 77 184 5.0 0.0 0.00 0.00 0.41 58 994.1
20260504033322 78 232 5.0 0.0 0.00 0.00 0.41 56 994.3
20260504031829 79 250 6.0 0.0 0.00 0.00 0.41 57 994.2
20260504030328 80 187 6.0 0.0 0.00 0.00 0.41 57 994.3
20260504024819 80 242 8.0 0.0 0.00 0.00 0.41 56 994.4
20260504023315 80 213 8.0 0.0 0.00 0.00 0.41 59 994.2
20260504021822 80 276 7.0 0.0 0.00 0.00 0.41 62 994.3
20260504020320 80 235 6.0 0.0 0.00 0.00 0.41 63 994.2
20260504014832 79 272 5.0 0.0 0.00 0.00 0.41 64 994.8
20260504013330 79 158 3.0 0.0 0.00 0.00 0.41 67 995.3
20260504011836 78 119 3.0 0.0 0.00 0.00 0.41 69 995.3
20260504010321 78 98 3.0 0.0 0.00 0.00 0.41 69 995.4
20260504004829 78 114 2.0 0.0 0.00 0.00 0.41 71 995.8
20260504003336 76 291 2.0 0.0 0.00 0.00 0.41 76 996.3
20260504001815 75 261 3.0 0.0 0.00 0.00 0.41 77 996.3
20260504000321 74 138 4.0 0.0 0.00 0.00 0.41 80 996.3
20260503234825 73 242 4.0 0.0 0.00 0.00 0.41 85 996.5
20260503233328 72 259 4.0 0.0 0.00 0.00 0.41 88 996.6
20260503231816 71 80 3.0 0.0 0.00 0.00 0.41 91 996.4
20260503230323 70 149 4.0 0.0 0.00 0.00 0.41 92 996.7